• Processing (Info)

  • MPEC 2010-T95 : COMET P/2010 R2 (LA SAGRA)

    The following Minor Planet Electronic Circular may be linked-to from your own Web pages, but must not otherwise be redistributed electronically.

    A form allowing access to any MPEC is at the bottom of this page.


    Read MPEC 2010-T94 Read MPEC 2010-T96


    M.P.E.C. 2010-T95                                Issued 2010 Oct. 13, 01:17 UT
    
         The Minor Planet Electronic Circulars contain information on unusual
             minor planets and routine data on comets.  They are published
       on behalf of Commission 20 of the International Astronomical Union by the
              Minor Planet Center, Smithsonian Astrophysical Observatory,
                              Cambridge, MA 02138, U.S.A.
    
                 Prepared using the Tamkin Foundation Computer Network
    
                                  MPC@CFA.HARVARD.EDU
           URL https://www.minorplanetcenter.org/iau/mpc.html  ISSN 1523-6714
    
                              COMET P/2010 R2 (LA SAGRA)
    
    Observations:
        PK10R020  C2010 09 20.90763 22 17 41.32 +24 57 47.8          18.7 N ET095473
        PK10R020  C2010 09 20.90833 22 17 41.29 +24 57 47.6          18.7 N ET095473
        PK10R020  C2010 09 21.91882 22 17 01.83 +24 51 29.5                 ET095204
        PK10R020  C2010 09 22.01321 22 16 58.09 +24 50 53.5          18.0 N ET095204
        PK10R020  C2010 10 04.75494 22 10 38.68 +23 16 52.2          19.1 N ET095B42
        PK10R020  C2010 10 04.76768 22 10 38.47 +23 16 45.5          18.8 N ET095B42
        PK10R020  C2010 10 05.70078 22 10 19.76 +23 09 09.6                 ET095372
        PK10R020  C2010 10 05.70496 22 10 19.66 +23 09 07.2                 ET095372
        PK10R020  C2010 10 05.70912 22 10 19.57 +23 09 05.2          18.0 N ET095372
        PK10R020  C2010 10 06.11322 22 10 12.48 +23 05 45.8                 ET095H06
        PK10R020  C2010 10 06.11700 22 10 12.39 +23 05 44.2          18.1 T ET095H06
        PK10R020  C2010 10 07.17457 22 09 53.87 +22 57 00.2          18.1 N ET095H10
        PK10R020  C2010 10 07.19249 22 09 53.54 +22 56 50.5          18.0 N ET095H10
        PK10R020  C2010 10 07.87194 22 09 42.69 +22 51 09.6          18.3 T ET095235
        PK10R020  C2010 10 07.87836 22 09 42.57 +22 51 06.7          18.1 T ET095235
        PK10R020  C2010 10 07.88648 22 09 42.53 +22 51 03.3          18.3 N ET095J38
        PK10R020  C2010 10 07.89003 22 09 42.50 +22 51 01.3          18.4 N ET095J38
        PK10R020  C2010 10 07.90067 22 09 42.28 +22 50 56.3          18.0 N ET095J38
        PK10R020  C2010 10 08.10809 22 09 39.13 +22 49 11.7          18.0 N ET095850
        PK10R020  C2010 10 08.13786 22 09 38.64 +22 48 57.7          18.6 N ET095850
        PK10R020  C2010 10 08.16765 22 09 38.13 +22 48 42.1          18.6 N ET095850
        PK10R020  C2010 10 08.19741 22 09 37.69 +22 48 26.8          18.1 N ET095850
        PK10R020  C2010 10 08.22713 22 09 37.20 +22 48 11.0          19.1 N ET095850
        PK10R020  C2010 10 08.75593 22 09 29.77 +22 43 45.8          19.2 N ET095585
        PK10R020  C2010 10 08.76012 22 09 29.67 +22 43 44.1          19.3 N ET095585
        PK10R020  C2010 10 08.76222 22 09 29.66 +22 43 42.9          19.3 N ET095585
        PK10R020  C2010 10 08.76432 22 09 29.63 +22 43 41.2          19.5 N ET095585
        PK10R020  C2010 10 08.76641 22 09 29.60 +22 43 40.9          18.6 N ET095585
        PK10R020  C2010 10 08.76855 22 09 29.58 +22 43 40.1          19.1 N ET095585
        PK10R020  C2010 10 08.77066 22 09 29.53 +22 43 38.5          18.7 N ET095585
        PK10R020  C2010 10 08.77275 22 09 29.52 +22 43 37.4          18.3 N ET095585
        PK10R020  C2010 10 08.77485 22 09 29.49 +22 43 36.0          18.7 N ET095585
        PK10R020  C2010 10 08.77694 22 09 29.44 +22 43 34.9          18.7 N ET095585
        PK10R020  C2010 10 08.77904 22 09 29.41 +22 43 33.9          18.8 N ET095585
        PK10R020  C2010 10 08.78113 22 09 29.38 +22 43 33.3          18.6 N ET095585
        PK10R020  C2010 10 08.78532 22 09 29.31 +22 43 30.8          18.4 N ET095585
        PK10R020  C2010 10 08.97465 22 09 26.53 +22 41 55.2          18.3 N ET095B82
        PK10R020  C2010 10 08.99251 22 09 26.28 +22 41 47.2          18.3 N ET095B82
        PK10R020  C2010 10 09.01035 22 09 26.05 +22 41 37.2          18.4 N ET095B82
        PK10R020  C2010 10 09.13409 22 09 24.50 +22 40 36.5          19.2 N ET095H21
        PK10R020  C2010 10 09.14618 22 09 24.33 +22 40 30.1          18.7 N ET095H21
        PK10R020  C2010 10 09.15821 22 09 24.16 +22 40 23.9          18.7 N ET095H21
        PK10R020  C2010 10 09.26840 22 09 22.59 +22 39 28.5          17.8 T ET095H10
        PK10R020  C2010 10 09.28598 22 09 22.34 +22 39 19.6          17.8 T ET095H10
        PK10R020  C2010 10 09.75814 22 09 16.60 +22 35 19.9          19.1 N ET095B42
        PK10R020  C2010 10 09.76663 22 09 16.48 +22 35 15.5          19.4 N ET095B42
        PK10R020  C2010 10 09.77729 22 09 16.31 +22 35 10.5          19.2 N ET095B42
        PK10R020  C2010 10 09.81612 22 09 15.85 +22 34 51.1          17.9 N ET095130
        PK10R020  C2010 10 09.81876 22 09 15.82 +22 34 50.2          18.3 N ET095130
        PK10R020  C2010 10 09.82114 22 09 15.80 +22 34 48.5          18.0 N ET095130
        PK10R020  C2010 10 09.82340 22 09 15.79 +22 34 47.4          18.4 N ET095130
        PK10R020  C2010 10 10.00514 22 09 13.35 +22 33 14.8          18.4 N ET095B82
        PK10R020  C2010 10 10.00872 22 09 13.33 +22 33 13.1          18.5 N ET095B82
        PK10R020  C2010 10 10.01229 22 09 13.24 +22 33 11.3          18.2 N ET095B82
        PK10R020  C2010 10 10.12484 22 09 12.10 +22 32 15.7          18.5 N ET095H21
        PK10R020  C2010 10 10.13428 22 09 11.98 +22 32 10.8          18.5 N ET095H21
        PK10R020  C2010 10 10.14373 22 09 11.86 +22 32 06.0          18.3 N ET095H21
        PK10R020  C2010 10 10.67247 22 09 05.69 +22 27 38.1          18.2 T ET095349
        PK10R020  C2010 10 10.68414 22 09 05.58 +22 27 31.7                 ET095349
        PK10R020  C2010 10 11.11596 22 09 01.29 +22 23 53.4          18.4 N ET095850
        PK10R020  C2010 10 11.13296 22 09 01.11 +22 23 44.8          18.2 N ET095850
        PK10R020  C2010 10 11.90985 22 08 53.73 +22 17 09.3          18.2 N ET095B82
        PK10R020  C2010 10 11.92433 22 08 53.58 +22 17 02.0          18.4 N ET095B82
        PK10R020  C2010 10 11.93885 22 08 53.43 +22 16 53.8          18.3 N ET095B82
    
    Observer details:
    130 Lumezzane.  Observers M. Casali, W. Marinello, M. Micheli, G. Pizzetti,
        A. Soffiantini.  Measurer W. Marinello.  0.40-m f/4.5 reflector + CCD.
    204 Schiaparelli Observatory.  Observer L. Buzzi.  0.38-m f/6.8 reflector
        + CCD.
    235 CAST Observatory, Talmassons.  Observers R. Ligustri, M. P. Benvenuti.
        Measurer R. Ligustri.  0.35-m f/6 reflector + CCD.
    349 Ageo.  Observer K. Kadota.  0.25-m f/5.0 reflector + CCD.
    372 Geisei.  Observers T. Seki, K. Muraoka, S. Shimomoto.  0.70-m f/7
        reflector + CCD.
    473 Remanzacco.  Observers L. Donato, V. Gonano, E. Guido, G. Sostero.  0.45-m
        f/4.4 Newtonian reflector + CCD.
    585 Kiev comet station.  Observers A. Baransky, P. Pasichnyk, K. Barinova,
        Y. Markov.  Measurer A. Baransky.  0.7-m f/4 reflector + CCD.
    850 Cordell-Lorenz Observatory, Sewanee.  Observers D. T. Durig, A. M. Peter,
        C. S. Liston.  0.30-m f/3.1 Schmidt-Cassegrain + CCD.
    B42 Vitebsk.  Observer V. Nevski.  0.3-m f/5.0 reflector + CCD.
    B82 Maidbronn.  Observer B. Haeusler.  0.30-m Schmidt-Cassegrain + CCD.
    H06 RAS Observatory, Mayhill.  Observer H. Sato.  0.25-m f/3.4 reflector + CCD.
    H10 Tzec Maun Observatory, Mayhill.  Observers P. Camilleri, S. Plaksa.  0.4-m
        f/9.0 reflector + CCD, 0.40-m f/9 reflector + CCD.
    H21 Astronomical Research Observatory, Westfield.  Observer R. Holmes.
        Measurer S. Foglia.  0.61-m f/4.0 astrograph + CCD, 0.76-m f/6.65
        Ritchey-Chretien + CCD.
    J38 Observatorio La Vara, Valdes.  Observer F. Garcia.  0.25-m f/8.1 reflector
        + CCD.
    
    Orbital elements:
        P/2010 R2 (La Sagra)
    T 2010 June 25.3966 TT                                  MPC
    q   2.622238             (2000.0)            P               Q
    n   0.1806689      Peri.   59.4501      +0.8083466      +0.4620944
    a   3.098945       Node   270.7405      -0.5817593      +0.7219153
    e   0.153829       Incl.   21.3942      +0.0901772      +0.5150797
    P   5.46
    From 231 observations 2010 Aug. 12-Oct. 11.
    
    Brian G. Marsden             (C) Copyright 2010 MPC           M.P.E.C. 2010-T95
    

    Read MPEC 2010-T94 Read MPEC 2010-T96


    MPEC number:

    Enter an MPEC number in one of the following forms:

    • 1997-B01 (the full form)
    • J97B01 (the packed version of the full form)
    • B01 (the abbreviated form)